Wind_Speed
48 51 53 49 44 41 41 44 47 48 49 50 51 52 52 52 51 47 44 41 40 48 53 52 55 57 55 52 48 43 40 40 38 37 37 35 34 33 32 30 30 31 29 27 30 31 31 31 32 33 32 32 33 33 32 32 33 33 34 36 37 38 39 38 38 37 37 36 34 33 33 33 33 33 32 32 33 34 35 35 36 36 36 35 35 35
50 55 53 47 44 43 45 46 48 49 50 51 52 52 52 52 51 47 45 42 40 48 53 53 56 57 54 52 49 46 43 39 37 37 37 35 34 33 32 30 30 32 31 29 30 31 32 32 32 33 34 34 34 34 34 34 35 35 36 37 38 38 38 37 37 37 37 35 34 34 34 34 34 33 33 34 35 35 36 37 37 37 36 36 35 35
53 56 51 46 45 47 48 48 49 50 50 52 52 53 53 52 51 48 46 43 42 49 53 53 56 56 52 51 49 46 44 39 37 37 35 34 35 33 33 33 32 33 33 32 32 32 33 34 34 34 35 35 35 35 34 35 37 37 37 38 38 38 37 37 37 37 36 35 35 35 34 34 34 34 35 36 36 37 37 38 38 38 37 36 36 36
55 55 50 47 48 49 50 49 50 51 51 52 51 52 54 50 49 51 48 46 47 50 53 54 57 55 50 48 46 44 42 38 37 37 35 34 35 35 36 36 34 32 32 33 33 34 35 35 35 35 35 35 35 35 35 37 38 38 37 38 38 37 36 37 37 37 36 36 36 35 35 35 35 35 36 37 37 38 39 39 38 38 38 38 38 39
54 54 52 50 50 50 51 50 50 51 51 51 51 52 52 49 48 52 52 51 51 52 52 53 57 55 47 45 42 39 39 38 38 39 37 36 35 35 36 36 34 33 33 34 34 35 36 37 37 37 36 35 35 35 37 38 38 37 37 37 38 38 38 38 37 37 36 36 35 35 35 36 36 37 38 38 39 39 39 39 39 39 39 40 40 42
53 52 51 50 51 51 51 52 51 50 49 50 51 49 48 48 49 51 51 53 55 54 51 51 57 55 47 43 39 37 39 40 39 39 37 34 35 36 35 34 34 33 33 33 33 34 36 37 38 38 38 37 36 36 37 38 37 36 36 36 37 38 38 38 37 36 36 36 36 36 36 37 38 39 39 39 40 40 40 39 40 40 41 42 43 44
51 48 47 48 49 50 51 53 50 46 47 51 51 47 46 48 49 49 51 53 55 55 55 54 58 59 53 45 40 40 43 43 41 40 36 33 33 34 33 32 32 31 32 33 32 33 35 37 38 39 39 39 38 37 37 38 37 35 34 34 36 37 38 38 37 36 36 36 36 37 38 39 39 39 40 41 41 41 40 40 40 42 43 43 45 46
47 45 45 45 46 49 52 51 46 43 48 52 51 48 48 49 48 49 51 52 54 55 57 58 60 62 59 51 46 45 46 46 43 40 36 32 32 32 32 32 31 30 30 31 32 32 33 35 36 38 39 39 37 37 37 37 37 35 34 33 34 36 37 38 37 37 37 38 38 39 40 40 40 41 41 42 42 41 40 40 41 43 44 45 46 47
46 46 46 46 47 50 50 48 46 46 50 51 50 51 52 51 50 50 50 52 54 55 57 60 60 61 59 56 54 52 48 47 45 41 37 34 33 34 34 33 31 30 29 30 32 32 33 34 35 36 37 37 36 36 36 35 35 35 35 35 35 36 38 38 38 38 38 39 40 40 40 40 41 42 42 43 42 42 41 42 43 44 45 46 46 48
47 48 49 50 51 50 49 48 48 49 51 51 50 51 52 52 51 51 52 52 55 56 58 60 60 59 56 55 57 55 50 48 46 44 42 39 36 35 35 34 33 31 30 31 33 33 34 36 37 37 36 36 37 37 36 35 35 35 36 37 38 39 40 40 40 40 41 41 41 41 41 42 43 43 43 44 43 43 43 43 44 44 45 46 47 49
48 49 50 52 51 50 50 50 49 50 51 50 50 51 52 53 53 55 56 56 58 59 59 60 59 57 54 52 55 56 55 53 49 46 45 44 41 38 36 35 34 33 33 34 35 35 36 38 38 38 37 37 37 37 38 38 37 37 38 39 40 41 42 43 43 43 43 43 42 42 43 43 44 44 45 45 44 44 45 44 44 44 45 47 48 50
50 51 52 52 51 52 52 52 51 51 50 48 48 49 52 53 55 58 60 60 61 60 59 59 57 56 53 52 54 56 57 57 55 52 50 49 47 44 39 37 38 39 38 38 38 38 38 39 39 40 40 39 37 38 39 39 39 39 39 40 41 42 44 45 46 46 45 44 44 44 44 45 46 46 46 46 46 46 46 45 44 44 45 46 48 50
52 52 53 53 54 53 52 52 52 52 48 46 46 48 51 53 56 60 61 59 60 60 58 57 57 58 56 53 54 54 56 57 58 57 56 54 52 50 45 43 44 45 45 43 42 40 39 39 40 41 41 39 38 38 39 40 40 40 40 40 40 41 43 45 46 47 46 46 45 45 47 49 49 49 48 48 48 48 48 46 45 45 45 46 47 49
56 54 53 55 55 52 52 51 51 50 47 46 47 48 49 52 56 60 58 57 59 59 56 56 58 60 57 54 53 54 55 57 58 59 60 60 58 55 51 48 47 48 49 48 45 43 42 41 41 41 40 38 38 38 39 39 39 40 41 41 42 42 43 44 46 47 47 47 46 48 50 52 52 51 51 51 50 51 51 50 49 47 47 47 48 50
60 59 55 55 55 53 53 53 51 51 51 52 52 52 53 55 57 59 57 57 59 58 57 59 61 61 58 56 56 55 57 59 60 62 63 63 61 58 57 55 53 51 51 51 49 46 45 43 43 42 41 40 40 40 40 39 39 40 40 41 42 44 44 44 46 47 48 49 50 51 53 54 54 54 55 54 54 54 54 53 52 50 48 48 50 51
61 64 61 60 60 57 55 55 54 55 56 57 58 59 60 58 56 57 56 55 56 59 61 63 65 64 60 59 58 57 60 61 62 63 62 64 64 62 62 63 63 58 52 50 50 49 47 45 44 42 41 42 42 41 41 41 41 41 41 42 42 44 44 44 45 47 49 51 53 54 55 55 55 56 57 58 58 58 57 56 55 53 51 49 49 51
59 65 65 64 64 60 58 57 56 56 57 58 61 62 62 60 59 61 62 60 60 66 67 66 69 67 63 62 60 59 60 61 61 62 61 64 67 67 65 65 67 63 55 51 51 51 50 48 45 41 37 37 39 41 41 41 41 41 42 44 44 45 46 46 46 47 49 51 53 54 55 56 57 58 59 60 60 60 59 58 56 54 53 51 50 51
57 62 63 63 64 62 59 57 56 56 57 58 60 59 58 61 62 64 67 67 67 70 71 67 68 69 66 66 63 60 62 61 61 63 64 65 68 68 66 65 66 63 56 54 53 52 52 50 46 42 36 36 39 43 43 41 41 41 42 45 47 48 48 48 48 48 49 50 51 53 55 56 57 58 60 61 61 60 59 58 57 56 56 55 53 52
59 63 62 60 61 62 60 60 60 60 60 60 61 59 59 62 63 64 67 70 70 72 73 69 69 70 68 67 65 63 64 64 65 66 65 65 66 65 63 62 63 60 53 51 51 50 50 47 43 42 40 40 44 47 46 43 42 42 43 45 47 50 50 49 50 50 50 51 52 54 55 56 57 59 60 61 61 60 59 59 59 60 60 59 58 55
67 72 71 63 61 63 63 63 64 64 64 65 64 62 63 64 64 65 66 69 71 72 73 70 70 71 66 63 64 64 64 66 66 65 63 63 63 61 58 57 57 57 53 49 48 49 48 45 41 41 40 41 45 50 51 46 42 42 45 46 47 49 51 51 51 52 52 53 55 56 57 58 58 59 61 62 61 60 60 60 60 61 61 62 61 57
74 79 81 74 69 71 71 69 69 68 67 65 63 61 63 64 65 66 68 68 69 72 73 69 69 71 60 53 56 58 59 63 63 61 60 59 58 55 53 54 53 54 52 48 47 48 47 45 42 42 42 44 49 55 56 50 45 44 46 46 47 49 51 52 53 54 55 56 57 57 58 59 60 61 62 62 62 61 62 62 61 62 63 62 60 56
77 78 78 75 74 76 75 72 70 68 62 57 54 53 56 60 63 68 70 68 67 72 73 67 69 70 52 39 44 49 52 57 57 56 55 54 53 51 51 52 52 53 51 48 47 48 48 47 44 43 46 49 54 58 59 55 51 49 48 47 48 50 53 55 57 58 58 59 59 58 59 60 60 61 62 62 62 62 63 64 63 64 64 62 59 56
72 69 69 68 68 66 64 61 59 58 53 50 50 50 52 55 58 65 69 66 64 66 65 61 68 68 47 32 37 43 50 56 55 53 53 50 47 47 48 48 48 51 51 47 47 48 48 48 47 49 51 54 57 59 60 59 57 55 54 53 52 53 55 57 59 61 61 61 61 60 60 61 61 61 62 62 63 64 65 65 65 65 64 61 59 57
69 67 68 69 67 63 60 56 53 52 51 53 55 54 56 55 52 56 61 58 57 58 58 62 72 74 53 35 35 39 46 54 54 52 51 47 43 45 49 49 48 49 49 47 47 48 49 49 50 53 56 57 58 59 59 60 60 59 59 58 58 57 57 59 60 61 61 62 63 63 62 61 61 62 63 62 62 63 64 65 65 64 62 60 59 57
75 76 75 74 72 70 67 63 60 57 56 59 59 56 57 57 54 54 56 55 57 60 64 73 84 83 66 50 49 49 48 50 51 49 48 48 50 54 56 55 52 49 49 49 50 50 51 53 54 54 56 56 56 56 58 59 61 62 62 62 62 60 59 59 59 60 61 62 63 64 64 64 63 63 62 61 60 61 62 63 63 63 61 60 58 55
78 79 79 77 77 76 73 69 65 63 64 66 66 61 56 56 56 57 56 59 66 72 78 86 92 90 81 73 72 67 58 54 50 48 53 60 63 62 59 55 51 48 48 50 53 55 56 55 54 52 51 52 53 56 58 56 57 60 60 60 58 56 56 54 54 56 59 60 62 64 65 66 65 63 60 58 59 60 61 61 61 60 60 58 57 56
75 76 77 78 79 78 77 74 70 70 74 77 77 73 67 61 60 62 66 74 81 84 86 87 87 87 86 85 86 82 75 70 64 61 68 74 70 63 56 52 51 51 51 51 55 60 58 55 53 50 48 49 53 55 54 51 52 56 58 58 57 55 55 54 52 53 54 57 59 61 64 65 64 62 59 58 59 60 60 59 58 57 56 56 57 57
74 75 77 79 80 79 77 75 73 74 77 78 78 77 76 72 70 72 78 83 81 79 82 82 80 80 81 82 86 87 85 83 77 71 71 71 66 61 55 51 50 51 53 55 57 59 58 56 56 54 52 53 55 53 51 52 54 56 56 57 56 56 56 54 53 53 53 55 56 58 61 64 64 62 61 60 61 61 59 57 57 56 55 55 57 60
77 78 78 79 81 80 77 76 74 74 75 76 75 76 77 78 78 78 81 81 77 77 82 82 78 78 76 73 73 75 77 76 70 62 58 58 59 57 52 49 50 51 53 57 57 57 59 61 61 59 58 59 60 58 57 59 60 60 58 58 57 57 56 56 56 56 57 57 57 59 62 64 64 64 63 61 61 60 59 58 57 57 57 58 59 61
76 77 77 77 78 78 77 76 75 74 75 74 75 75 74 74 74 75 76 75 73 75 76 74 72 72 67 61 61 65 65 61 57 54 52 52 53 52 51 52 53 54 57 59 58 58 62 64 64 64 63 64 65 64 63 64 64 64 63 62 61 60 59 61 62 62 63 64 65 67 67 67 66 65 64 62 60 59 59 58 58 59 59 59 59 61
72 73 72 72 74 75 74 73 73 73 73 72 72 71 69 67 68 68 69 67 67 68 68 68 70 70 64 60 61 61 56 53 54 54 52 51 51 52 55 59 61 62 64 65 64 64 66 67 67 68 69 70 69 68 68 68 67 68 68 69 69 68 68 68 68 69 71 71 70 70 69 69 67 66 63 61 60 59 58 58 58 59 59 59 60 61
71 74 73 72 73 74 71 71 72 71 70 72 73 72 70 69 70 70 68 66 66 67 68 69 72 72 69 65 61 56 52 51 52 51 50 50 53 58 64 70 72 73 73 73 70 68 68 69 70 71 72 72 72 72 72 72 71 73 76 79 81 81 80 80 79 79 78 74 69 68 67 66 65 65 64 62 60 59 58 58 58 58 58 59 60 62
71 72 72 70 69 68 65 66 69 70 72 75 75 74 74 74 73 73 73 72 70 71 75 77 77 76 73 70 67 64 60 57 55 55 57 59 62 68 74 78 79 78 77 77 75 73 73 73 74 74 73 73 74 75 75 76 77 78 80 84 86 86 85 84 83 83 80 75 70 68 66 65 64 64 62 60 58 57 57 57 57 58 59 60 61 62
69 66 66 66 68 69 67 66 69 73 76 76 72 70 71 70 70 71 74 72 69 69 72 75 75 76 77 78 77 74 71 67 65 67 69 69 71 73 75 76 77 77 78 78 78 76 74 74 75 76 76 76 78 78 78 80 81 82 83 85 86 85 85 84 82 79 76 74 71 68 66 65 64 62 60 58 57 57 57 57 57 59 60 61 62 63
70 70 72 74 78 81 79 75 76 79 80 77 74 72 73 71 71 74 76 74 70 69 70 72 76 80 82 82 81 79 76 72 71 72 71 69 70 71 71 71 72 73 74 74 74 72 72 72 73 75 78 81 83 83 80 80 81 82 84 84 83 83 83 81 79 76 74 72 70 67 64 61 60 59 58 57 56 56 57 57 57 59 61 62 64 65
72 72 75 77 80 83 83 82 84 85 84 80 76 76 77 77 77 78 78 77 76 76 77 79 81 82 82 82 81 81 77 73 70 70 68 66 67 68 68 67 67 68 69 71 72 73 73 73 73 74 77 81 85 85 82 81 82 82 82 82 81 81 80 78 77 75 74 73 70 64 59 56 56 56 56 55 55 55 56 57 58 60 62 64 65 65
72 73 74 75 76 78 80 83 87 88 87 86 85 84 83 82 82 82 81 82 84 86 88 89 88 87 85 80 74 71 68 64 63 65 66 65 65 65 65 64 64 64 65 66 69 71 72 73 74 75 75 77 80 81 80 80 80 80 80 79 79 79 79 78 77 76 75 74 70 63 56 54 53 53 54 55 55 56 57 58 59 61 63 65 65 66
73 73 73 74 75 75 76 79 81 80 76 74 76 81 82 80 80 80 78 77 79 79 80 80 80 81 82 78 72 69 66 63 61 62 65 65 65 64 63 61 61 61 61 61 62 64 67 69 71 72 73 74 75 75 75 75 76 77 78 79 79 80 81 80 79 78 75 74 71 64 57 54 53 53 54 56 57 58 59 60 61 62 64 65 66 66
74 74 75 76 77 77 77 79 80 77 69 61 63 72 77 75 73 73 68 65 65 66 65 66 67 69 73 74 73 73 73 71 68 67 68 68 67 66 66 65 65 64 63 63 62 62 62 63 64 67 69 71 72 72 72 72 73 74 75 78 80 81 81 80 79 78 76 75 72 66 59 54 53 54 56 57 59 62 63 64 64 64 65 66 66 66
74 74 76 77 78 78 79 80 81 81 80 78 78 82 84 79 73 71 69 68 69 70 71 72 74 77 80 81 83 84 84 83 81 77 76 77 76 75 75 74 72 68 66 66 66 65 62 61 60 62 64 67 69 71 72 73 74 74 74 74 75 75 75 75 75 76 76 75 71 66 60 55 54 56 56 57 61 64 65 66 66 66 67 68 68 68
75 75 75 77 77 78 79 82 83 83 85 87 89 89 90 86 81 78 78 77 75 75 77 78 81 86 89 89 89 88 86 84 81 77 76 79 81 80 78 76 73 70 68 67 67 67 66 64 63 62 62 64 67 69 72 74 75 77 76 73 70 70 70 72 73 75 74 72 68 65 62 58 57 58 58 59 62 63 64 65 65 66 66 66 67 67
75 75 74 74 75 75 76 78 82 83 84 86 88 89 90 89 88 89 91 89 84 80 76 73 73 77 80 83 85 85 81 78 75 73 74 79 82 83 82 80 77 74 72 71 70 70 69 67 65 64 63 63 65 69 71 72 71 73 75 72 70 70 71 71 73 73 72 71 68 64 62 60 60 62 63 64 65 65 65 65 65 65 64 64 65 66
71 72 73 72 72 73 74 75 78 80 81 81 83 86 87 87 89 92 94 94 94 92 88 83 79 75 73 72 74 76 77 77 77 77 79 81 83 82 83 83 82 80 77 75 74 74 72 70 67 64 64 65 67 69 71 71 70 71 72 72 73 74 75 75 77 76 76 74 69 64 63 63 64 65 66 67 68 67 66 65 64 63 62 62 64 65
68 69 70 70 70 71 74 75 76 76 76 76 78 81 83 85 87 89 91 93 95 97 97 97 96 93 90 86 82 80 80 81 82 82 80 78 77 77 76 77 78 79 78 78 77 77 75 72 68 65 64 65 67 69 71 72 72 73 74 75 76 76 76 77 77 77 76 74 70 67 67 68 68 68 68 67 67 66 65 64 64 64 63 62 63 64
66 65 67 70 70 70 73 75 74 73 73 73 74 77 79 81 82 84 86 88 90 94 96 98 99 99 101 102 101 98 94 86 80 78 77 74 72 71 70 71 72 73 74 75 77 77 75 73 70 68 66 64 65 68 71 72 72 73 74 75 75 74 74 74 74 74 74 73 71 70 70 69 68 68 66 65 65 64 63 64 65 65 63 62 63 63
65 64 66 68 70 70 72 72 71 72 72 72 73 75 77 79 79 80 81 82 83 86 90 93 95 97 99 101 103 103 101 93 84 77 73 72 70 69 67 66 67 69 71 71 73 74 74 72 71 72 70 66 65 69 72 74 73 73 74 75 75 75 74 74 73 74 75 73 71 70 69 67 66 65 64 64 64 63 63 64 65 64 62 62 63 63
64 63 63 65 66 68 68 67 65 67 69 70 70 71 72 75 77 78 79 80 81 83 85 86 88 90 92 95 97 98 99 99 97 92 86 83 82 81 78 74 69 68 68 68 69 70 70 70 71 74 74 69 68 71 75 77 76 75 76 77 77 77 76 75 75 77 78 76 73 71 69 67 66 65 65 65 65 65 66 66 66 64 62 61 62 63
61 60 61 62 62 63 64 64 62 62 64 65 66 68 69 71 73 74 76 79 82 84 87 88 89 90 91 91 92 93 93 95 99 101 102 102 102 102 99 93 84 76 71 67 66 67 69 70 73 78 78 75 74 76 80 81 81 80 80 80 79 79 78 77 77 79 80 79 77 74 72 70 70 69 68 67 67 67 68 68 68 67 65 64 64 65
59 61 61 60 59 61 62 60 59 59 62 62 62 64 66 67 69 71 73 75 76 79 81 84 88 92 94 96 96 97 96 96 96 99 101 103 106 109 109 105 98 91 84 77 72 70 72 74 78 82 83 82 83 84 85 84 84 84 83 82 81 79 79 79 79 80 81 80 79 76 75 74 73 72 71 70 70 70 70 70 69 68 67 67 67 67
58 60 59 56 57 60 60 56 53 56 60 60 59 60 63 64 67 69 70 72 73 74 77 79 82 85 88 92 94 97 99 100 100 101 102 101 102 104 107 107 105 103 100 97 93 90 88 86 85 85 85 86 88 89 89 87 86 86 86 86 84 82 81 80 80 80 80 79 78 77 76 77 77 76 75 74 73 72 71 70 70 70 70 71 71 70
54 55 55 55 58 59 57 53 50 52 55 55 54 55 56 58 61 64 66 68 70 72 74 77 79 81 83 84 85 88 92 95 97 100 102 103 103 103 104 105 106 105 106 107 107 106 103 98 94 90 88 88 90 91 91 89 86 86 87 89 90 88 85 83 82 82 81 80 80 80 80 80 81 80 79 78 76 75 73 72 72 72 73 74 75 75
Wind_Direction
274 275 275 280 288 292 288 284 285 286 286 286 287 287 289 290 291 296 299 298 295 288 282 282 282 281 282 283 285 284 281 281 283 284 284 285 285 286 288 288 285 282 279 276 274 277 279 279 278 277 277 276 276 276 277 277 279 280 278 273 268 266 266 268 270 270 269 270 272 272 269 266 265 266 269 272 274 276 280 282 283 282 283 284 283 282
274 274 277 283 288 285 281 280 282 283 284 285 286 286 287 289 292 295 297 299 296 287 283 283 282 282 284 286 287 286 284 283 283 282 282 284 285 286 287 286 284 282 279 276 274 275 277 278 276 276 275 274 274 275 275 275 278 279 277 273 270 268 268 268 268 268 269 270 270 269 267 266 266 268 270 271 273 277 281 282 283 283 284 284 283 282
274 274 278 283 281 278 277 278 279 280 282 282 284 285 286 289 292 292 293 295 291 285 285 285 285 285 287 287 287 287 287 288 286 283 283 284 285 285 285 285 284 281 278 276 276 275 275 274 274 274 275 275 275 274 274 275 278 277 274 271 269 268 268 267 267 267 268 268 267 266 266 267 268 269 270 271 274 278 280 281 283 284 284 285 284 283
273 275 278 278 276 276 276 277 278 278 279 281 283 284 284 289 292 290 290 291 288 285 287 289 288 286 286 287 287 289 291 291 289 287 286 284 284 284 285 285 284 280 277 275 276 276 274 273 272 271 271 273 274 273 273 275 277 276 272 270 268 266 266 265 265 265 265 264 263 264 266 267 269 270 271 273 276 278 281 282 284 284 285 286 286 285
271 273 275 275 275 275 275 275 276 276 277 280 281 281 283 287 288 287 289 290 288 285 287 291 289 285 286 288 289 293 294 294 292 290 287 286 285 283 282 284 284 282 279 277 276 274 273 272 271 270 269 271 273 272 272 274 277 277 273 270 267 265 263 263 263 262 262 262 263 265 267 269 270 271 273 275 277 279 282 283 284 285 286 287 288 287
269 271 274 275 275 275 275 274 274 275 278 278 277 279 281 282 282 284 287 288 286 286 288 290 287 286 287 288 291 297 296 294 293 289 289 289 286 283 281 281 282 282 284 282 278 274 271 269 270 270 270 271 272 271 270 273 277 278 275 271 268 265 263 263 262 261 261 262 264 266 268 269 271 273 275 276 278 280 282 284 285 286 287 288 288 287
269 271 273 274 275 275 274 273 273 276 277 274 274 276 276 276 278 281 283 283 284 286 288 288 286 287 289 289 294 298 294 292 291 291 294 293 286 282 279 276 276 279 284 284 280 275 272 270 270 271 271 272 272 271 271 272 275 275 274 272 270 268 266 264 262 262 262 263 265 266 267 269 272 274 275 277 279 281 282 284 285 286 287 287 287 287
272 272 271 271 271 272 272 274 276 276 273 271 273 275 274 274 275 276 278 280 280 282 284 284 285 287 291 295 297 295 291 290 292 294 297 294 286 281 277 275 275 277 278 279 279 277 275 273 272 272 273 274 274 274 273 274 273 272 272 272 270 269 267 264 263 262 262 264 265 267 269 271 273 274 275 277 279 281 282 283 284 285 286 286 286 285
272 270 269 269 268 268 271 275 275 273 271 272 274 274 273 274 274 275 277 277 277 277 278 280 282 285 290 295 296 292 288 290 293 294 294 291 286 282 280 277 276 276 274 273 273 275 276 277 277 277 277 276 275 274 274 275 274 272 271 270 268 266 265 264 263 263 264 266 268 270 272 273 273 274 275 277 278 280 281 281 282 283 283 284 284 283
269 269 270 269 268 269 271 273 272 272 273 274 274 273 273 274 275 276 276 276 275 274 275 277 281 286 289 292 292 290 290 292 293 294 293 291 288 286 284 280 278 276 273 271 270 270 273 276 278 279 279 278 276 274 274 275 275 273 270 268 267 266 265 264 264 265 266 267 269 270 271 271 272 273 274 275 277 278 278 279 280 281 282 282 282 282
269 269 269 270 271 271 271 270 270 271 271 272 273 274 275 275 276 277 276 275 274 272 274 276 280 286 287 288 288 290 293 295 295 295 294 293 290 287 284 282 279 276 273 272 270 270 272 275 276 277 278 278 277 275 274 273 273 272 270 268 267 266 266 266 266 266 266 267 268 269 270 271 271 272 273 274 276 276 276 277 278 279 280 281 281 280
271 270 269 269 271 271 271 271 271 271 271 273 273 274 275 275 276 276 274 274 274 272 274 278 280 281 280 281 284 287 292 294 295 295 293 292 290 287 287 286 283 281 279 277 274 272 271 273 274 274 276 277 276 275 274 272 272 271 269 267 266 266 267 267 267 268 269 270 271 272 273 274 274 274 274 275 275 275 275 276 278 278 279 279 279 279
272 271 271 271 270 271 273 273 273 272 273 273 272 271 273 274 274 273 273 274 275 274 277 281 281 277 274 277 280 284 288 290 293 293 291 290 288 288 289 289 286 285 284 282 280 278 276 276 275 274 276 276 274 272 271 271 272 271 269 267 266 266 267 267 268 269 271 272 274 276 277 278 277 277 277 276 276 275 276 276 277 277 276 276 276 277
271 269 270 272 272 272 274 275 275 274 273 271 268 267 269 270 270 271 274 277 278 278 280 281 277 273 275 278 281 283 285 287 289 289 289 289 289 291 292 290 287 285 285 285 284 284 282 281 279 278 279 279 276 274 273 272 272 271 269 267 266 267 266 267 268 269 270 272 274 275 277 277 278 278 277 276 276 276 277 277 278 277 275 275 274 275
274 270 268 269 269 269 270 273 274 275 273 270 269 267 266 267 269 272 275 278 279 278 278 276 272 271 274 279 280 281 283 285 286 286 288 290 292 294 293 291 288 284 284 286 286 286 283 280 279 279 281 280 279 279 279 278 277 275 271 269 267 267 266 265 266 267 268 269 270 272 273 274 275 275 274 275 275 276 278 279 280 279 277 275 274 274
277 276 275 272 270 269 268 269 272 274 273 271 270 270 269 271 273 273 273 273 275 276 276 275 274 272 273 275 277 279 280 282 284 286 288 290 292 292 293 293 291 289 288 288 288 288 287 284 282 281 280 278 279 281 282 282 281 279 277 275 272 269 268 266 265 266 267 267 268 270 271 272 272 272 273 274 275 276 277 279 281 281 280 276 273 273
278 278 278 277 276 275 273 271 270 272 274 273 270 271 274 277 276 275 274 273 273 273 273 275 275 276 276 275 275 276 277 279 283 286 288 288 289 289 290 292 291 292 294 293 291 291 290 288 287 284 276 271 273 278 280 280 278 278 278 277 276 275 273 271 269 268 268 268 269 270 271 272 272 273 273 274 275 276 277 280 281 282 280 277 274 271
278 278 277 277 279 279 277 276 274 273 275 276 276 277 279 278 276 276 275 273 272 271 272 274 274 275 276 275 275 276 278 280 282 284 285 285 286 287 288 289 290 292 294 295 294 294 292 291 288 283 273 264 270 277 278 277 275 275 275 275 275 274 273 271 271 270 270 270 270 270 270 271 272 272 273 273 275 277 279 280 282 281 280 278 276 273
279 279 276 273 274 276 276 277 278 278 280 283 285 283 280 278 278 277 274 271 270 270 271 272 270 270 272 274 276 279 280 281 282 283 284 285 285 286 287 288 289 291 293 294 295 294 292 290 284 278 271 264 270 279 280 276 274 273 273 273 272 270 268 269 270 270 270 270 270 270 270 270 270 271 272 273 275 277 279 279 279 279 279 278 277 276
279 280 280 275 272 274 275 276 279 282 285 287 286 282 279 278 278 276 273 270 269 268 268 268 267 267 270 273 275 277 278 278 279 280 282 285 288 289 289 288 290 293 296 298 296 293 291 288 279 273 267 260 266 279 282 277 273 273 274 272 269 266 264 265 266 266 267 268 268 268 269 269 270 271 272 274 275 277 278 277 277 277 277 277 276 275
279 281 284 282 278 276 277 278 281 285 287 286 284 282 280 278 276 272 269 267 266 265 264 265 264 264 269 274 275 276 278 278 279 280 282 285 287 288 289 289 291 293 297 298 295 291 290 286 278 270 264 260 267 278 282 278 274 273 273 272 269 267 265 264 264 264 264 265 266 267 268 269 270 272 273 274 275 276 276 277 277 277 276 275 274 272
282 284 285 286 284 282 281 282 283 284 284 283 282 281 279 277 274 270 267 268 267 263 262 264 265 267 270 271 272 275 278 277 278 280 281 281 283 287 289 290 290 291 293 294 292 288 286 282 276 268 262 262 269 277 280 280 276 274 273 272 270 270 270 268 267 267 266 265 266 268 269 270 271 273 274 274 275 275 275 276 276 276 275 274 272 271
284 285 284 285 286 284 283 282 280 279 278 276 274 276 279 278 275 271 271 272 271 266 267 270 274 276 274 265 266 273 275 273 272 274 275 277 283 290 291 290 289 287 287 290 288 283 278 275 272 270 267 266 271 277 280 280 277 275 275 275 274 273 273 273 272 271 270 269 269 271 272 273 274 275 275 275 275 275 274 274 274 274 274 272 272 272
281 280 280 282 282 280 279 276 272 271 272 271 272 278 282 280 275 272 272 273 270 267 271 276 278 279 278 271 270 276 278 274 269 268 272 277 284 289 290 291 290 286 281 281 281 279 273 269 267 269 269 270 273 276 278 278 276 276 277 280 280 278 277 277 276 276 275 274 273 273 274 275 276 276 276 277 277 275 272 271 271 272 271 271 272 272
278 277 277 278 277 276 275 272 269 267 268 270 273 278 280 276 270 265 264 265 266 268 274 278 280 281 280 276 273 276 280 276 268 267 273 278 282 284 286 287 288 287 282 278 277 275 270 267 266 265 267 271 274 275 275 277 278 278 279 281 282 282 281 280 279 278 277 277 275 275 277 279 280 279 279 280 279 274 270 269 270 269 270 271 272 270
277 276 276 275 275 275 274 272 270 268 266 269 273 275 275 271 264 261 259 262 268 274 278 279 281 284 284 281 278 276 277 275 269 268 274 277 278 281 282 283 282 282 281 279 277 273 268 265 263 263 267 272 273 273 273 275 276 277 279 280 281 283 283 281 279 278 277 277 277 277 279 281 282 282 282 281 277 272 270 268 268 268 270 271 271 269
275 274 274 275 275 275 275 274 273 270 269 271 275 276 275 269 263 262 263 269 275 279 279 279 283 286 286 285 283 279 277 276 271 269 272 274 276 277 277 275 273 273 274 273 273 271 267 261 256 257 263 268 270 271 271 270 271 274 276 277 279 280 280 280 281 281 281 279 279 280 281 282 281 281 281 279 275 272 270 267 267 269 272 272 271 271
273 273 274 275 275 276 276 276 274 272 271 271 272 273 274 272 270 269 271 276 280 280 279 282 286 286 285 287 287 283 282 282 279 275 272 272 272 273 271 269 268 269 269 269 268 266 261 256 254 255 259 264 267 269 266 264 265 267 268 270 273 274 274 276 278 280 281 281 282 283 283 281 280 279 278 276 274 272 269 266 266 270 273 274 273 272
272 273 274 275 275 276 276 276 275 274 273 272 271 270 271 271 272 273 275 278 279 278 280 284 286 284 286 288 288 285 284 284 281 276 270 266 266 266 266 265 266 266 267 268 268 262 255 253 254 254 256 261 265 265 263 262 263 264 265 267 270 271 272 273 276 278 279 280 281 281 281 280 280 278 276 274 273 270 267 265 268 271 274 275 273 272
271 272 273 275 275 275 275 275 275 274 273 273 272 272 272 271 271 271 271 273 274 276 279 283 283 282 283 284 284 283 283 280 277 273 268 263 260 259 260 264 266 265 263 264 264 259 255 256 256 256 256 259 263 265 266 267 267 267 267 268 270 271 272 274 276 277 278 279 280 279 278 278 276 274 273 271 270 267 265 266 269 272 274 274 273 272
269 270 272 273 274 274 274 274 274 274 274 274 274 273 271 271 270 269 270 273 275 276 278 280 279 276 277 280 281 280 277 274 271 268 263 260 258 260 262 264 264 262 261 261 261 261 262 262 262 262 259 258 260 263 266 268 269 270 270 271 272 273 274 275 275 275 276 277 277 277 276 274 272 270 269 267 266 265 266 268 270 272 273 273 273 272
269 271 272 272 273 274 274 274 273 272 271 270 269 269 268 269 270 271 272 274 274 275 277 277 276 276 277 279 276 271 267 267 265 262 259 258 258 261 264 266 266 265 264 264 264 264 266 267 266 263 259 258 259 262 265 267 269 270 272 274 275 274 274 273 273 273 274 274 273 271 270 267 265 264 264 263 263 264 265 267 269 271 272 272 272 271
272 273 274 274 274 273 271 270 270 269 269 267 265 266 268 269 270 271 271 271 273 275 277 277 277 277 275 273 270 268 266 264 264 263 261 259 259 262 266 269 270 269 269 268 268 267 267 266 264 261 257 256 257 261 266 268 268 269 271 272 272 272 271 270 270 270 271 271 269 267 264 262 260 260 260 261 262 263 265 267 269 270 270 270 270 270
268 267 268 269 269 268 267 266 266 267 268 268 268 268 269 269 269 269 270 271 274 275 274 273 273 272 271 271 272 272 270 267 267 268 267 265 265 266 268 269 269 270 271 271 272 271 269 266 263 260 257 254 256 261 265 266 267 267 268 268 269 269 268 268 268 268 267 266 265 263 261 259 259 259 260 262 264 265 267 268 269 269 270 270 271 271
266 263 263 263 264 266 267 267 268 269 270 271 271 270 269 268 267 267 269 271 271 269 269 270 271 272 273 274 275 274 273 271 271 271 270 268 266 265 265 266 266 267 267 267 268 269 268 266 263 260 258 257 259 263 265 264 264 265 265 265 265 265 265 265 266 265 263 261 260 259 259 259 260 261 263 265 267 267 269 270 270 271 271 271 271 271
270 267 266 265 265 266 266 265 266 268 269 270 270 269 268 267 266 267 269 269 267 267 268 271 271 272 275 276 275 274 273 272 271 270 269 267 264 263 263 263 263 263 262 263 263 263 264 263 262 261 260 259 261 264 264 262 262 262 262 263 262 261 261 261 260 260 259 258 258 258 259 260 262 264 266 267 269 270 271 271 271 271 271 271 273 274
271 270 269 268 267 267 266 266 266 267 268 268 267 267 267 267 267 269 270 270 270 271 271 271 270 271 274 274 272 270 269 267 267 268 268 265 264 263 263 263 263 262 262 261 261 261 261 261 261 261 261 261 262 263 262 260 259 258 259 260 259 259 259 259 258 258 257 257 257 258 259 261 263 266 267 268 270 271 272 272 272 271 271 272 274 274
271 270 270 269 267 267 267 267 268 269 270 270 269 268 267 267 268 270 271 271 271 271 271 270 268 268 268 266 264 265 266 264 264 267 268 265 263 262 262 263 265 265 263 262 261 261 260 260 260 261 261 262 262 262 261 260 258 257 257 258 258 258 259 260 261 261 260 260 260 260 261 261 264 266 267 268 270 272 273 273 272 270 270 271 273 275
271 270 269 269 268 268 267 266 266 265 264 264 263 264 265 267 267 267 266 264 263 263 264 264 264 264 264 264 265 268 270 269 268 269 269 266 264 264 264 265 267 268 266 264 264 263 261 259 259 260 261 261 262 262 262 261 260 259 258 259 260 261 262 263 262 262 262 262 262 263 263 263 265 267 268 270 271 272 273 272 270 269 271 273 276 279
271 270 269 269 268 268 267 266 265 263 261 259 259 261 263 264 265 263 260 257 258 262 263 264 264 266 268 269 270 272 275 275 274 272 270 267 266 266 267 268 268 267 265 264 264 264 262 260 259 260 261 261 262 262 262 262 262 261 260 260 262 263 262 262 262 263 262 262 263 263 262 263 266 267 268 269 270 270 271 271 271 273 275 277 279 280
273 272 270 269 268 268 267 266 265 264 262 261 262 262 262 261 261 261 260 259 259 262 265 267 269 269 270 270 271 272 273 273 271 269 268 268 268 268 268 268 268 266 264 263 262 263 263 262 262 262 261 260 261 261 261 262 262 262 261 261 261 260 259 259 261 262 262 263 264 263 261 262 264 266 266 268 268 269 270 271 272 274 275 277 277 278
276 274 272 271 271 269 267 265 264 263 263 263 264 264 263 262 260 259 259 259 259 260 263 266 269 268 267 265 264 264 264 262 262 264 266 269 271 271 271 270 269 266 264 263 262 262 262 263 264 264 262 260 259 259 259 260 260 261 261 262 261 261 261 261 262 263 263 264 265 263 260 261 264 264 266 268 269 269 269 270 271 272 273 275 276 276
277 276 275 274 273 271 268 266 265 264 264 264 264 264 263 263 262 260 259 259 259 260 260 260 260 261 260 260 258 258 258 259 261 264 267 268 268 269 268 268 266 264 263 262 262 261 261 262 263 262 262 261 259 257 256 257 257 258 261 262 262 262 263 264 265 265 265 266 264 260 258 260 262 262 263 265 266 267 267 268 269 270 272 274 275 275
277 277 277 276 274 272 270 269 268 268 268 267 266 265 264 263 263 262 262 261 261 261 261 260 259 258 258 259 259 260 262 264 264 263 262 260 259 259 259 258 258 258 257 257 258 258 259 261 260 260 261 261 259 255 254 254 255 256 258 260 260 261 261 262 263 264 265 265 263 260 259 260 260 260 261 262 262 263 266 268 269 271 272 273 275 276
276 276 276 275 273 272 271 272 273 272 271 270 269 268 267 266 264 263 263 263 262 262 262 262 260 259 258 258 259 259 260 261 261 259 255 253 251 250 248 247 246 247 248 250 253 256 258 259 259 260 261 260 258 256 255 256 257 258 258 257 257 257 258 259 260 261 262 262 262 261 260 259 258 258 258 258 260 263 265 267 268 270 271 273 274 275
277 277 275 274 273 272 272 273 274 273 272 271 270 269 268 268 267 265 264 264 263 263 263 263 263 262 261 260 260 259 258 256 255 255 254 252 251 249 246 242 239 238 240 243 247 251 254 256 258 263 264 261 257 256 257 258 260 260 259 257 255 255 256 257 258 260 261 261 261 261 260 257 255 255 255 258 261 263 265 266 267 268 269 271 272 273
278 278 275 274 275 274 274 273 272 271 271 270 269 268 268 268 267 266 265 263 262 262 262 262 262 263 262 262 262 261 259 256 254 254 253 253 254 255 255 252 247 241 237 236 238 241 244 249 256 263 264 260 256 256 257 258 259 259 259 257 256 255 255 256 258 260 261 259 259 259 258 254 252 253 255 258 260 262 263 264 265 265 267 268 269 269
279 278 277 278 278 277 276 275 273 271 270 269 268 268 269 268 268 267 266 265 264 263 263 262 261 261 261 261 262 262 261 259 257 256 255 254 255 256 258 259 256 251 244 238 235 235 236 243 253 260 261 258 255 255 256 256 257 258 257 256 256 256 256 257 258 260 260 259 259 258 256 252 252 253 254 257 260 261 261 261 261 262 263 264 265 266
282 281 281 283 282 279 279 279 279 276 273 270 270 270 270 270 269 268 268 268 267 267 266 265 264 263 263 262 262 261 261 260 259 259 258 257 256 256 257 257 256 254 251 247 244 243 244 247 251 254 257 257 256 255 255 255 255 256 256 254 252 253 254 255 257 258 258 258 259 258 255 252 252 253 254 257 260 261 260 258 258 259 260 261 263 264
286 285 285 285 284 284 284 285 284 281 277 275 273 272 271 271 271 271 270 270 270 270 269 268 267 266 266 266 266 265 263 262 261 260 260 259 258 258 258 258 257 255 253 251 251 253 255 256 253 250 252 254 254 253 253 252 252 254 254 252 250 250 251 251 252 253 254 255 256 257 256 254 252 253 254 256 258 259 258 257 256 256 257 259 260 261
286 285 286 287 288 289 289 287 285 284 283 282 280 279 278 277 276 276 275 275 274 274 273 272 270 269 268 268 268 268 268 266 265 264 263 261 260 259 259 259 259 258 256 255 255 256 257 257 254 251 249 249 250 250 249 248 248 249 250 250 249 249 248 249 249 250 250 252 254 255 256 256 254 253 254 255 256 256 255 255 255 255 256 256 257 257
Height
5813 5808 5805 5809 5816 5819 5816 5811 5808 5807 5805 5801 5799 5796 5795 5794 5793 5797 5800 5802 5802 5792 5785 5786 5782 5779 5781 5785 5790 5794 5796 5796 5796 5796 5795 5795 5795 5794 5794 5793 5792 5789 5790 5790 5788 5786 5785 5784 5784 5783 5783 5783 5783 5783 5782 5782 5781 5780 5779 5778 5777 5777 5776 5776 5775 5775 5774 5775 5775 5775 5775 5775 5775 5775 5775 5775 5775 5774 5774 5774 5773 5773 5772 5772 5772 5771
5808 5800 5802 5811 5814 5811 5808 5806 5804 5802 5800 5797 5795 5792 5791 5791 5790 5793 5794 5796 5797 5785 5776 5779 5774 5772 5776 5778 5781 5785 5787 5790 5793 5792 5791 5790 5790 5789 5789 5789 5788 5786 5785 5786 5784 5783 5781 5780 5780 5779 5779 5779 5778 5778 5778 5777 5777 5776 5775 5773 5772 5772 5771 5771 5770 5770 5770 5770 5770 5770 5770 5770 5770 5771 5771 5770 5770 5770 5769 5769 5768 5767 5767 5767 5767 5766
5800 5794 5801 5808 5806 5803 5801 5801 5800 5797 5795 5792 5791 5789 5786 5788 5787 5786 5789 5790 5789 5779 5771 5772 5767 5765 5770 5772 5774 5778 5780 5784 5786 5786 5786 5785 5784 5784 5784 5784 5783 5782 5781 5780 5779 5778 5776 5775 5775 5775 5774 5774 5773 5773 5773 5772 5771 5771 5770 5768 5767 5767 5766 5766 5766 5765 5765 5765 5764 5764 5764 5765 5765 5766 5765 5765 5765 5765 5764 5763 5763 5762 5762 5762 5762 5761
5792 5791 5798 5801 5798 5797 5796 5796 5795 5792 5791 5788 5788 5785 5781 5785 5783 5778 5781 5782 5781 5775 5768 5767 5760 5757 5764 5766 5768 5773 5774 5778 5779 5779 5781 5780 5779 5779 5778 5777 5777 5777 5777 5775 5774 5772 5771 5770 5770 5769 5769 5769 5768 5768 5768 5767 5766 5765 5764 5763 5762 5762 5761 5761 5761 5760 5760 5759 5759 5759 5759 5760 5760 5760 5760 5760 5760 5759 5759 5758 5758 5757 5757 5757 5756 5755
5787 5788 5791 5793 5792 5792 5790 5790 5789 5787 5786 5785 5784 5782 5778 5781 5779 5773 5773 5772 5771 5769 5767 5765 5752 5747 5757 5761 5763 5769 5770 5771 5773 5773 5774 5775 5774 5773 5772 5771 5771 5771 5771 5770 5769 5768 5766 5765 5764 5763 5764 5764 5764 5763 5762 5761 5760 5759 5759 5758 5757 5757 5756 5755 5755 5755 5754 5754 5754 5754 5755 5755 5755 5755 5755 5755 5754 5754 5753 5753 5752 5752 5751 5751 5750 5749
5783 5785 5787 5787 5786 5785 5785 5784 5783 5783 5783 5781 5778 5778 5777 5775 5773 5770 5769 5765 5761 5760 5763 5763 5749 5737 5748 5756 5759 5765 5766 5765 5767 5767 5768 5770 5769 5767 5766 5766 5765 5764 5764 5763 5763 5762 5761 5760 5759 5758 5758 5758 5758 5758 5757 5756 5755 5754 5753 5752 5752 5751 5751 5750 5750 5749 5749 5749 5749 5749 5750 5749 5749 5749 5750 5749 5749 5748 5748 5748 5747 5746 5746 5745 5744 5743
5778 5782 5783 5782 5780 5779 5777 5776 5778 5780 5779 5774 5771 5774 5774 5771 5769 5766 5765 5761 5756 5754 5753 5755 5749 5735 5735 5748 5756 5759 5757 5757 5760 5761 5763 5765 5763 5760 5760 5761 5760 5760 5759 5757 5757 5757 5756 5754 5754 5753 5752 5752 5752 5752 5752 5751 5750 5749 5748 5747 5747 5746 5746 5746 5745 5745 5744 5744 5744 5744 5744 5744 5744 5744 5744 5743 5743 5743 5742 5742 5741 5740 5739 5739 5738 5736
5775 5777 5777 5776 5775 5773 5770 5771 5775 5775 5770 5767 5768 5769 5767 5766 5765 5763 5761 5758 5754 5752 5747 5744 5745 5736 5727 5735 5749 5751 5748 5748 5752 5756 5758 5759 5757 5755 5754 5755 5755 5755 5754 5752 5751 5750 5750 5749 5748 5747 5747 5747 5747 5747 5746 5745 5744 5744 5743 5742 5742 5741 5741 5741 5740 5740 5739 5739 5738 5738 5738 5739 5739 5738 5737 5737 5737 5737 5736 5736 5735 5734 5733 5732 5731 5730
5770 5769 5770 5769 5768 5767 5767 5768 5769 5766 5762 5763 5764 5763 5760 5760 5759 5758 5757 5754 5751 5749 5743 5738 5740 5739 5729 5727 5736 5739 5739 5742 5745 5748 5751 5752 5752 5750 5749 5749 5748 5748 5749 5748 5747 5745 5744 5743 5742 5742 5742 5742 5742 5741 5741 5740 5740 5739 5737 5736 5735 5735 5735 5735 5735 5734 5734 5733 5733 5733 5733 5733 5732 5732 5731 5731 5731 5731 5731 5730 5729 5728 5727 5726 5725 5724
5763 5763 5763 5761 5761 5762 5764 5763 5761 5759 5758 5759 5758 5756 5755 5753 5752 5752 5750 5748 5747 5743 5739 5735 5736 5739 5733 5726 5725 5726 5730 5735 5737 5739 5742 5743 5745 5745 5743 5743 5742 5742 5742 5742 5742 5741 5740 5738 5737 5736 5736 5736 5736 5736 5736 5735 5734 5733 5732 5730 5729 5729 5729 5728 5728 5728 5727 5727 5726 5726 5726 5726 5725 5725 5725 5725 5725 5725 5724 5724 5723 5722 5721 5720 5718 5717
5757 5756 5756 5754 5754 5756 5756 5755 5754 5754 5753 5753 5752 5750 5749 5747 5745 5744 5741 5740 5739 5736 5734 5734 5736 5739 5734 5723 5718 5719 5721 5725 5728 5731 5733 5733 5735 5737 5738 5737 5736 5735 5736 5735 5735 5736 5735 5734 5732 5731 5731 5731 5730 5730 5729 5729 5728 5727 5726 5724 5724 5723 5723 5722 5722 5722 5721 5720 5720 5720 5720 5719 5719 5719 5719 5719 5719 5719 5718 5718 5717 5717 5715 5714 5712 5710
5751 5750 5750 5750 5749 5748 5747 5747 5748 5747 5747 5747 5747 5745 5742 5740 5738 5734 5732 5732 5730 5729 5730 5733 5735 5736 5729 5720 5718 5718 5717 5717 5719 5722 5724 5725 5725 5727 5731 5732 5730 5729 5728 5728 5728 5729 5729 5728 5727 5726 5725 5725 5725 5724 5723 5722 5721 5720 5719 5718 5718 5717 5717 5716 5716 5715 5715 5715 5714 5714 5713 5713 5713 5713 5713 5713 5713 5712 5712 5712 5712 5711 5710 5708 5707 5705
5744 5744 5744 5743 5743 5743 5740 5740 5741 5740 5740 5740 5739 5738 5734 5732 5730 5724 5723 5724 5723 5725 5727 5728 5729 5725 5719 5717 5719 5719 5717 5716 5715 5714 5715 5716 5716 5718 5723 5725 5724 5722 5722 5722 5721 5720 5721 5721 5720 5720 5719 5719 5719 5718 5717 5716 5715 5714 5713 5712 5712 5711 5711 5710 5710 5710 5710 5710 5709 5708 5708 5707 5707 5707 5707 5707 5706 5706 5706 5706 5706 5705 5705 5703 5702 5700
5736 5739 5740 5736 5735 5737 5734 5733 5733 5732 5733 5732 5731 5730 5726 5725 5721 5715 5716 5718 5717 5720 5722 5721 5718 5713 5711 5714 5717 5717 5716 5714 5712 5709 5708 5708 5709 5712 5714 5716 5717 5716 5715 5715 5715 5713 5713 5713 5712 5711 5711 5711 5711 5711 5711 5710 5710 5709 5708 5707 5706 5705 5705 5705 5705 5705 5704 5704 5703 5702 5702 5701 5701 5701 5700 5700 5700 5699 5699 5699 5700 5699 5699 5698 5696 5695
5724 5729 5737 5732 5728 5731 5729 5727 5726 5724 5724 5723 5723 5721 5717 5718 5715 5709 5712 5713 5711 5712 5712 5710 5707 5705 5708 5710 5711 5711 5710 5709 5707 5705 5703 5702 5703 5705 5705 5706 5708 5709 5709 5708 5707 5707 5706 5706 5705 5705 5705 5704 5704 5704 5704 5704 5704 5703 5703 5702 5702 5701 5700 5700 5700 5699 5699 5698 5697 5696 5695 5695 5695 5694 5693 5693 5693 5693 5692 5692 5692 5692 5692 5692 5691 5689
5710 5715 5727 5723 5718 5724 5725 5722 5721 5717 5715 5717 5716 5712 5709 5713 5711 5705 5705 5707 5704 5701 5701 5700 5696 5698 5704 5704 5705 5707 5704 5703 5701 5700 5700 5698 5697 5697 5697 5696 5695 5698 5701 5701 5700 5699 5698 5698 5699 5700 5699 5698 5698 5697 5697 5697 5697 5696 5695 5695 5696 5696 5696 5696 5695 5695 5694 5692 5691 5691 5690 5689 5688 5687 5687 5686 5686 5686 5686 5685 5685 5685 5684 5685 5684 5683
5700 5703 5714 5712 5708 5714 5715 5715 5715 5710 5707 5709 5708 5706 5706 5708 5706 5699 5695 5698 5698 5689 5690 5695 5689 5690 5696 5696 5699 5702 5698 5699 5698 5696 5697 5693 5689 5690 5691 5689 5686 5689 5693 5693 5692 5691 5690 5690 5691 5692 5692 5692 5692 5691 5690 5690 5689 5689 5688 5687 5688 5688 5689 5690 5690 5689 5688 5687 5687 5686 5685 5683 5682 5681 5680 5679 5679 5679 5679 5679 5678 5678 5677 5676 5676 5675
5692 5691 5702 5707 5702 5703 5704 5703 5704 5703 5701 5699 5699 5703 5704 5699 5696 5694 5686 5685 5687 5678 5678 5688 5686 5685 5688 5687 5691 5694 5692 5693 5693 5691 5690 5687 5684 5684 5685 5683 5680 5683 5687 5685 5684 5683 5682 5683 5683 5684 5684 5684 5684 5684 5683 5683 5682 5682 5681 5681 5680 5680 5680 5681 5681 5682 5681 5681 5681 5679 5679 5677 5676 5675 5674 5674 5673 5673 5673 5672 5671 5670 5669 5668 5668 5667
5687 5678 5687 5700 5698 5693 5694 5693 5692 5694 5693 5690 5690 5694 5694 5688 5687 5687 5678 5673 5674 5669 5666 5674 5678 5679 5682 5683 5686 5687 5685 5685 5685 5684 5682 5678 5677 5678 5679 5678 5675 5677 5680 5679 5678 5676 5675 5676 5675 5675 5676 5675 5675 5675 5675 5675 5675 5675 5674 5674 5673 5672 5672 5672 5672 5673 5673 5673 5673 5672 5671 5671 5670 5669 5668 5667 5667 5666 5666 5665 5664 5663 5662 5661 5660 5658
5679 5669 5669 5687 5694 5686 5684 5687 5685 5685 5685 5682 5680 5680 5680 5679 5677 5675 5670 5665 5664 5660 5656 5659 5662 5667 5678 5683 5682 5681 5680 5677 5676 5677 5675 5672 5671 5671 5672 5671 5670 5669 5671 5671 5671 5670 5669 5669 5668 5668 5668 5667 5666 5665 5666 5667 5668 5668 5667 5667 5666 5665 5665 5665 5665 5665 5665 5665 5665 5664 5663 5663 5662 5662 5661 5660 5659 5659 5659 5657 5657 5656 5655 5654 5652 5651
5668 5663 5658 5669 5680 5678 5677 5680 5679 5677 5676 5672 5670 5669 5668 5669 5666 5662 5658 5657 5657 5651 5647 5647 5643 5650 5672 5681 5677 5676 5674 5670 5670 5670 5670 5668 5666 5665 5664 5663 5664 5663 5663 5664 5664 5663 5663 5663 5662 5662 5661 5660 5658 5656 5655 5658 5660 5660 5660 5660 5659 5658 5658 5658 5657 5657 5657 5657 5656 5656 5656 5655 5655 5654 5653 5652 5652 5652 5651 5650 5649 5648 5647 5646 5644 5643
5658 5656 5651 5654 5662 5666 5670 5673 5670 5668 5668 5664 5661 5659 5659 5659 5658 5652 5645 5648 5650 5642 5638 5638 5629 5635 5663 5676 5672 5671 5667 5663 5663 5663 5663 5662 5660 5659 5658 5657 5656 5655 5655 5657 5657 5657 5657 5656 5655 5655 5654 5652 5650 5648 5647 5648 5650 5651 5652 5652 5652 5651 5651 5650 5648 5648 5648 5648 5648 5649 5648 5647 5647 5647 5646 5645 5644 5644 5643 5642 5641 5639 5638 5638 5636 5635
5653 5648 5643 5643 5647 5652 5659 5664 5662 5658 5658 5656 5652 5651 5652 5652 5650 5644 5637 5640 5643 5634 5631 5632 5621 5623 5650 5668 5667 5665 5660 5655 5655 5655 5654 5655 5654 5654 5653 5652 5651 5649 5648 5650 5650 5650 5649 5648 5647 5646 5645 5643 5641 5640 5639 5639 5641 5641 5642 5643 5643 5644 5644 5642 5640 5640 5639 5639 5640 5640 5640 5639 5639 5639 5638 5637 5636 5636 5634 5633 5632 5631 5631 5630 5628 5627
5646 5641 5636 5635 5635 5640 5647 5654 5655 5653 5650 5645 5643 5645 5645 5643 5644 5639 5633 5633 5631 5625 5626 5623 5610 5613 5639 5658 5659 5658 5655 5651 5650 5650 5648 5647 5648 5647 5646 5646 5645 5644 5643 5643 5643 5642 5640 5639 5638 5635 5633 5632 5631 5632 5631 5630 5630 5631 5632 5633 5634 5636 5636 5635 5633 5632 5632 5632 5632 5631 5631 5631 5631 5630 5629 5629 5628 5627 5625 5624 5624 5623 5623 5622 5620 5620
5636 5631 5630 5628 5626 5628 5635 5641 5646 5648 5645 5637 5636 5639 5637 5635 5636 5631 5627 5624 5616 5615 5620 5612 5598 5607 5631 5645 5646 5647 5650 5649 5647 5647 5643 5640 5640 5640 5639 5639 5638 5636 5635 5635 5635 5634 5631 5629 5628 5625 5622 5622 5623 5623 5622 5621 5621 5621 5622 5623 5624 5625 5626 5626 5625 5625 5624 5624 5623 5622 5622 5622 5621 5621 5620 5620 5619 5617 5615 5615 5615 5615 5614 5614 5613 5612
5624 5621 5620 5620 5617 5617 5622 5629 5637 5641 5636 5628 5627 5630 5631 5630 5627 5622 5619 5613 5604 5607 5611 5600 5592 5602 5620 5628 5630 5635 5642 5644 5645 5644 5638 5633 5633 5633 5633 5632 5629 5627 5627 5627 5626 5624 5621 5620 5618 5616 5614 5613 5612 5612 5612 5612 5611 5611 5612 5613 5614 5615 5615 5616 5616 5616 5616 5615 5615 5614 5614 5612 5611 5611 5610 5610 5608 5607 5606 5607 5607 5606 5606 5605 5604 5603
5613 5610 5612 5612 5608 5608 5612 5618 5626 5628 5622 5617 5617 5619 5622 5622 5620 5616 5609 5601 5599 5600 5595 5591 5593 5596 5601 5611 5616 5623 5629 5631 5636 5636 5629 5625 5625 5624 5624 5623 5621 5619 5618 5618 5615 5612 5611 5610 5608 5607 5605 5603 5601 5601 5602 5602 5602 5603 5603 5605 5606 5606 5605 5605 5605 5605 5606 5606 5606 5606 5605 5604 5603 5602 5601 5600 5598 5597 5598 5599 5598 5598 5597 5597 5596 5595
5602 5597 5602 5603 5598 5600 5604 5607 5613 5613 5607 5607 5608 5608 5610 5611 5610 5606 5596 5592 5597 5589 5575 5582 5592 5585 5584 5597 5604 5609 5613 5614 5618 5620 5616 5614 5614 5613 5614 5613 5611 5609 5609 5606 5602 5600 5600 5599 5597 5597 5596 5594 5592 5591 5591 5592 5593 5594 5595 5597 5598 5597 5597 5596 5596 5596 5596 5596 5596 5597 5596 5594 5594 5593 5592 5590 5589 5589 5590 5590 5590 5589 5589 5588 5587 5587
5593 5586 5592 5593 5588 5591 5594 5595 5600 5600 5595 5596 5597 5596 5599 5600 5598 5594 5587 5587 5589 5576 5565 5576 5582 5573 5575 5586 5590 5595 5600 5599 5600 5602 5602 5602 5602 5602 5603 5602 5599 5598 5597 5593 5590 5589 5588 5587 5587 5587 5586 5584 5582 5581 5581 5581 5583 5584 5586 5588 5589 5588 5588 5587 5586 5587 5587 5587 5588 5588 5586 5585 5585 5584 5582 5581 5581 5581 5581 5581 5580 5580 5580 5579 5578 5577
5586 5578 5583 5585 5578 5579 5583 5584 5586 5586 5583 5583 5584 5585 5586 5587 5586 5583 5579 5581 5580 5569 5565 5571 5568 5563 5570 5576 5578 5582 5586 5586 5586 5587 5588 5589 5590 5591 5591 5588 5585 5584 5581 5579 5577 5577 5575 5575 5576 5577 5577 5574 5573 5572 5571 5572 5573 5574 5576 5578 5578 5578 5578 5577 5576 5577 5577 5577 5578 5578 5576 5576 5575 5574 5573 5573 5573 5573 5572 5572 5572 5571 5570 5569 5568 5567
5577 5571 5576 5577 5567 5566 5573 5576 5575 5574 5573 5572 5573 5575 5575 5574 5574 5572 5571 5573 5571 5564 5563 5564 5555 5552 5563 5569 5569 5571 5573 5572 5572 5573 5575 5577 5578 5578 5575 5570 5567 5567 5566 5566 5567 5567 5567 5567 5568 5568 5566 5564 5563 5562 5561 5562 5563 5563 5564 5566 5567 5568 5568 5567 5568 5568 5567 5568 5568 5566 5566 5565 5564 5564 5564 5564 5564 5564 5564 5563 5562 5561 5560 5559 5558 5557
5570 5564 5566 5568 5558 5555 5564 5567 5564 5565 5563 5559 5559 5564 5567 5566 5563 5562 5564 5565 5562 5556 5555 5553 5546 5545 5553 5558 5556 5556 5558 5558 5558 5561 5562 5562 5561 5560 5556 5553 5553 5554 5555 5557 5559 5561 5561 5560 5559 5557 5555 5554 5552 5550 5550 5550 5551 5551 5552 5553 5554 5556 5556 5557 5558 5557 5557 5558 5557 5555 5555 5554 5553 5553 5553 5554 5554 5554 5554 5553 5553 5552 5551 5550 5549 5547
5563 5557 5556 5557 5550 5547 5555 5556 5553 5553 5546 5540 5548 5557 5559 5556 5553 5553 5553 5554 5554 5551 5545 5541 5537 5535 5536 5537 5538 5543 5546 5548 5551 5550 5546 5544 5545 5547 5545 5543 5543 5544 5544 5545 5547 5550 5551 5550 5548 5546 5544 5543 5541 5540 5539 5538 5539 5541 5541 5541 5543 5544 5545 5546 5547 5547 5548 5548 5547 5546 5545 5543 5542 5542 5542 5543 5544 5543 5543 5543 5542 5542 5541 5540 5539 5538
5555 5551 5548 5548 5540 5536 5543 5546 5542 5537 5529 5528 5542 5550 5546 5545 5544 5541 5541 5545 5546 5542 5534 5529 5523 5519 5517 5519 5524 5530 5535 5541 5543 5537 5531 5532 5536 5537 5536 5534 5534 5534 5534 5534 5534 5536 5537 5537 5537 5536 5535 5534 5531 5530 5529 5527 5527 5529 5529 5529 5530 5531 5533 5534 5535 5537 5538 5538 5537 5536 5535 5533 5532 5532 5533 5533 5533 5533 5533 5533 5532 5532 5531 5531 5530 5530
5542 5542 5539 5538 5532 5525 5532 5537 5527 5517 5519 5527 5535 5537 5534 5534 5533 5529 5531 5536 5532 5524 5521 5519 5511 5504 5505 5508 5511 5515 5522 5530 5530 5522 5519 5522 5521 5520 5522 5524 5524 5524 5523 5522 5522 5523 5524 5524 5525 5526 5526 5524 5522 5520 5518 5516 5516 5517 5517 5517 5518 5518 5520 5522 5523 5525 5527 5526 5526 5525 5523 5523 5522 5522 5523 5523 5523 5523 5523 5523 5523 5522 5522 5522 5521 5521
5528 5529 5527 5526 5524 5519 5522 5523 5511 5506 5516 5523 5522 5521 5522 5523 5521 5520 5522 5523 5516 5510 5510 5507 5499 5496 5495 5496 5498 5502 5508 5516 5515 5508 5508 5510 5506 5505 5508 5511 5512 5512 5511 5511 5511 5511 5512 5512 5513 5514 5515 5514 5512 5510 5508 5506 5505 5506 5507 5507 5506 5507 5508 5509 5511 5513 5515 5515 5515 5514 5513 5513 5512 5512 5512 5512 5512 5513 5513 5514 5514 5514 5514 5513 5513 5512
5516 5517 5516 5514 5514 5512 5511 5508 5502 5503 5509 5510 5507 5508 5511 5511 5511 5511 5511 5507 5501 5497 5495 5492 5489 5489 5487 5486 5487 5490 5494 5501 5502 5497 5497 5498 5495 5494 5496 5498 5499 5500 5501 5501 5501 5501 5501 5501 5501 5502 5503 5503 5501 5499 5497 5496 5495 5496 5497 5497 5497 5497 5497 5498 5500 5502 5504 5505 5505 5504 5503 5502 5502 5502 5502 5503 5503 5503 5504 5505 5505 5506 5505 5504 5504 5503
5507 5506 5505 5502 5500 5502 5502 5497 5495 5496 5497 5496 5497 5497 5497 5499 5501 5501 5499 5493 5487 5482 5478 5478 5479 5477 5476 5476 5475 5476 5480 5486 5488 5488 5487 5486 5485 5485 5486 5487 5488 5489 5490 5490 5491 5491 5491 5490 5490 5490 5491 5491 5490 5488 5487 5486 5485 5486 5487 5488 5487 5487 5488 5490 5491 5492 5494 5495 5495 5494 5493 5492 5492 5493 5493 5493 5494 5494 5495 5495 5495 5496 5496 5495 5494 5494
5497 5495 5494 5490 5487 5491 5492 5486 5485 5487 5485 5484 5484 5485 5486 5488 5489 5490 5487 5479 5473 5469 5466 5466 5465 5463 5463 5464 5463 5464 5465 5468 5473 5478 5478 5475 5475 5476 5475 5476 5478 5479 5479 5480 5480 5480 5480 5480 5480 5479 5479 5479 5479 5478 5477 5475 5475 5476 5478 5479 5479 5479 5480 5481 5481 5482 5483 5483 5483 5483 5483 5483 5483 5484 5484 5484 5484 5484 5485 5486 5486 5486 5486 5485 5485 5485
5486 5484 5483 5479 5476 5479 5479 5473 5472 5474 5472 5469 5470 5474 5478 5479 5479 5477 5472 5465 5462 5459 5456 5456 5455 5452 5451 5452 5452 5453 5452 5451 5456 5463 5465 5463 5464 5464 5464 5465 5466 5467 5468 5468 5468 5468 5470 5470 5470 5470 5470 5469 5469 5468 5467 5466 5465 5466 5468 5470 5471 5470 5469 5469 5469 5471 5471 5472 5472 5472 5473 5473 5474 5474 5474 5474 5474 5475 5476 5477 5477 5477 5477 5476 5476 5476
5473 5472 5469 5466 5465 5467 5465 5459 5458 5459 5457 5456 5458 5461 5464 5468 5470 5464 5454 5451 5453 5451 5447 5447 5445 5441 5440 5440 5440 5441 5441 5439 5440 5445 5448 5449 5450 5452 5452 5452 5453 5455 5456 5457 5457 5456 5457 5459 5460 5460 5460 5460 5459 5458 5457 5456 5456 5456 5457 5460 5460 5459 5458 5457 5458 5460 5461 5461 5463 5462 5462 5463 5463 5463 5464 5464 5464 5465 5466 5467 5467 5467 5467 5466 5466 5467
5458 5455 5454 5454 5454 5453 5451 5446 5443 5443 5445 5447 5447 5447 5449 5452 5454 5448 5440 5439 5442 5440 5438 5437 5434 5430 5429 5429 5428 5428 5429 5429 5428 5430 5433 5434 5435 5438 5440 5440 5441 5443 5444 5444 5445 5444 5444 5447 5448 5448 5449 5450 5449 5448 5447 5447 5447 5446 5446 5449 5449 5447 5448 5448 5448 5450 5451 5452 5453 5453 5453 5453 5453 5454 5454 5454 5454 5455 5455 5455 5456 5456 5456 5456 5457 5457
5444 5439 5439 5441 5441 5437 5435 5434 5430 5428 5434 5438 5435 5433 5435 5435 5434 5433 5430 5429 5428 5426 5426 5426 5423 5420 5418 5417 5417 5417 5417 5418 5419 5420 5422 5422 5421 5422 5424 5425 5426 5428 5430 5431 5432 5432 5431 5434 5436 5437 5437 5438 5437 5437 5436 5436 5436 5436 5437 5438 5437 5436 5438 5438 5438 5439 5441 5442 5442 5443 5443 5443 5444 5444 5445 5445 5445 5445 5444 5444 5445 5445 5446 5446 5447 5447
5432 5429 5426 5427 5427 5422 5417 5418 5419 5418 5423 5427 5423 5419 5419 5420 5420 5419 5417 5416 5414 5411 5409 5409 5409 5408 5405 5404 5406 5407 5408 5409 5409 5409 5411 5411 5410 5410 5410 5410 5410 5411 5414 5416 5417 5417 5418 5419 5423 5425 5426 5425 5425 5424 5424 5424 5424 5426 5427 5427 5426 5426 5427 5428 5427 5428 5430 5430 5431 5432 5432 5433 5433 5434 5435 5435 5435 5435 5434 5435 5435 5435 5435 5436 5436 5436
5421 5423 5417 5412 5412 5410 5405 5406 5410 5411 5412 5415 5412 5405 5402 5405 5406 5404 5402 5402 5400 5396 5393 5392 5393 5394 5393 5390 5390 5394 5398 5399 5398 5397 5398 5400 5401 5400 5398 5397 5396 5395 5397 5400 5402 5402 5403 5405 5408 5411 5413 5414 5413 5412 5412 5412 5413 5415 5416 5415 5414 5415 5416 5416 5416 5418 5419 5420 5420 5421 5421 5422 5423 5424 5424 5424 5424 5425 5425 5425 5425 5425 5425 5426 5426 5427
5412 5414 5408 5400 5399 5398 5397 5400 5401 5398 5398 5402 5399 5392 5388 5389 5390 5389 5387 5386 5385 5382 5379 5377 5376 5378 5378 5375 5375 5379 5384 5387 5386 5385 5386 5387 5390 5391 5389 5388 5386 5384 5383 5386 5387 5387 5388 5390 5393 5396 5399 5403 5403 5401 5401 5401 5401 5402 5404 5403 5402 5403 5403 5404 5405 5407 5408 5408 5409 5409 5410 5411 5412 5413 5414 5414 5414 5414 5415 5415 5415 5415 5415 5416 5416 5417
5405 5402 5395 5390 5389 5386 5386 5392 5393 5386 5386 5389 5386 5380 5378 5377 5376 5375 5373 5371 5370 5368 5367 5365 5363 5362 5362 5361 5361 5363 5368 5372 5371 5370 5372 5373 5376 5379 5379 5379 5378 5376 5374 5373 5372 5371 5373 5375 5378 5382 5386 5391 5392 5389 5388 5389 5389 5389 5390 5390 5390 5390 5391 5392 5394 5395 5395 5396 5397 5397 5398 5400 5401 5402 5402 5403 5403 5403 5404 5405 5405 5405 5405 5406 5406 5406
5396 5391 5383 5383 5382 5376 5374 5380 5381 5376 5376 5378 5375 5371 5369 5366 5364 5363 5360 5357 5356 5355 5353 5352 5351 5349 5348 5348 5348 5348 5351 5355 5355 5353 5355 5357 5360 5362 5365 5366 5367 5368 5366 5363 5359 5358 5359 5361 5364 5368 5372 5377 5379 5376 5374 5376 5378 5377 5377 5378 5378 5379 5379 5380 5382 5382 5382 5383 5385 5386 5387 5388 5389 5390 5391 5391 5392 5393 5394 5394 5394 5394 5395 5396 5395 5395
5382 5379 5376 5374 5369 5366 5366 5369 5368 5364 5364 5367 5366 5363 5359 5355 5352 5351 5349 5346 5344 5342 5341 5340 5339 5337 5335 5335 5335 5334 5335 5338 5340 5338 5338 5341 5344 5344 5346 5348 5351 5354 5355 5353 5349 5346 5346 5348 5351 5352 5356 5362 5364 5361 5360 5363 5365 5365 5365 5365 5365 5366 5366 5368 5369 5369 5371 5372 5373 5374 5375 5376 5377 5378 5379 5380 5381 5382 5383 5383 5383 5384 5384 5385 5385 5385
5370 5368 5369 5364 5356 5355 5359 5360 5357 5352 5352 5356 5357 5353 5349 5346 5342 5340 5339 5337 5334 5331 5329 5328 5327 5326 5324 5322 5321 5320 5319 5321 5324 5323 5322 5325 5328 5328 5328 5329 5331 5335 5339 5338 5335 5334 5334 5336 5337 5338 5342 5346 5347 5346 5347 5349 5351 5352 5352 5351 5351 5351 5352 5354 5356 5357 5359 5361 5362 5363 5364 5365 5366 5366 5367 5368 5369 5370 5371 5372 5372 5373 5373 5374 5374 5374
5362 5360 5360 5355 5349 5349 5350 5351 5348 5343 5341 5344 5345 5342 5339 5337 5333 5331 5329 5327 5324 5321 5317 5315 5314 5313 5313 5312 5311 5307 5305 5305 5308 5308 5307 5309 5312 5313 5313 5312 5312 5315 5319 5319 5318 5318 5320 5322 5323 5324 5327 5330 5331 5331 5332 5335 5338 5339 5338 5336 5336 5337 5338 5340 5343 5345 5348 5350 5351 5351 5352 5352 5354 5355 5355 5356 5358 5359 5360 5360 5360 5361 5362 5362 5363 5363